Miscellaneous Local Product
Issued by NWS North Platte, NE

Home | Current Version | Previous Version | Text Only | Print | Product List | Glossary On
Versions: 1 2 3 4 5 6 7 8 9 10 11 12 13 14 15 16 17 18 19 20 21 22 23 24 25 26 27 28 29 30 31 32 33 34 35 36 37 38 39 40 41 42 43 44 45 46 47 48 49 50
000
AXUS43 KLBF 231310
MISLBF


WESTERN AND NORTH CENTRAL NEBRASKA HOURLY WEATHER ROUNDUP
NATIONAL WEATHER SERVICE NORTH PLATTE NE
800 AM CDT TUE SEP 23 2014

***STATIONS NOT REPORTING VARIABLES SUCH AS SKY/WEATHER OR
PRESSURE ARE PROVIDED BY THE NEBRASKA DEPARTMENT OF
ROADS...RAWS...AND APRS NETWORKS...AND ARE NOT UNDER
NATIONAL WEATHER SERVICE QUALITY CONTROL***

...OBSERVATIONS IN AND NEAR THE EASTERN PANHANDLE OF NEBRASKA...

CITY           SKY/WX    TMP DP  RH WIND       PRES   REMARKS
PINE RIDGE     PTCLDY    52  49  89 W7        29.93S
CHADRON        MOCLDY    57  50  77 SW7       29.94S
ALLIANCE       PTCLDY    46  45  96 W6        29.98R
SIDNEY         PTCLDY    57  50  77 W13       30.05R
WHITECLAY        N/A     50  47  90 E6          N/A
RUSHVILLE        N/A     49  47  95 S8          N/A
CRESCENT LAKE    N/A     54  49  83 SW3         N/A
LISCO            N/A     47  43  85 W5          N/A
BIG SPRINGS      N/A     55  53  93 CALM        N/A
$$

...OBSERVATIONS IN NORTH CENTRAL NEBRASKA...

CITY           SKY/WX    TMP DP  RH WIND       PRES   REMARKS
VALENTINE      CLOUDY    58  56  93 S7        29.96F
THEDFORD       CLOUDY    59  57  93 S14G21    30.01S
AINSWORTH      CLOUDY    56  54  92 S18       29.99S
O`NEILL        RAIN      57  56  99 SE15G21   30.06S
ORD            CLOUDY    56  54  93 SE12      30.06R
BROKEN BOW     CLOUDY    57  54  89 S9        30.04S
SPRINGVIEW       N/A     58  54  87 E6          N/A
ROSE             N/A     58  58  99 E15         N/A
NEWPORT          N/A     58  56  95 S12         N/A
COMSTOCK         N/A     59  58  97 S13         N/A
CHAMBERS         N/A     56  55  97 MISG        N/A
$$

...OBSERVATIONS IN SOUTHWEST NEBRASKA AND FAR NORTHEAST COLORADO...

CITY           SKY/WX    TMP DP  RH WIND       PRES   REMARKS
WRAY           FAIR     N/A N/A N/A SW6       30.04S
HOLYOKE        FAIR      59  55  88 SW5       30.03S
IMPERIAL       CLOUDY    59  55  87 S12       30.03S
OGALLALA       PTCLDY    56  55  96 SW3       30.01S
NORTH PLATTE   CLOUDY    55  54  96 E3        30.02S
MCCOOK         PTCLDY    55  54  96 CALM      30.05R
LEXINGTON      CLOUDY    57  55  95 SE10      30.05S
PAXTON           N/A     57  55  94 S3          N/A
SUTHERLAND       N/A     53  51  92 S6          N/A
BRADY            N/A     56  54  92 CALM        N/A
GOTHENBURG       N/A     57  53  87 SE5         N/A
CALLAWAY         N/A     55  54  97 S12         N/A
$$

...SOME WEATHER OBSERVATIONS FROM AROUND THE REGION...

CITY           SKY/WX    TMP DP  RH WIND       PRES   REMARKS
DENVER         MOCLDY    59  48  67 SW10      30.13R
LARAMIE        CLEAR     46  41  82 SW12      30.22S
CHEYENNE       CLEAR     53  44  71 SW12      30.17R
SCOTTSBLUFF    CLEAR     50  47  89 N5        30.02R
RAPID CITY     MOCLDY    58  53  84 CALM      29.91R
PIERRE         PTCLDY    58  52  80 SE14      29.92F
WINNER         MOCLDY    60  54  80 S18G26    29.96R
SIOUX FALLS    LGT RAIN  58  53  84 S10       30.13R
OMAHA          CLOUDY    61  52  72 SE10      30.18S
GRAND ISLAND   CLOUDY    57  54  89 SE8       30.11S
KANSAS CITY    CLOUDY    56  51  84 SE8       30.24R
WICHITA        MOCLDY    60  52  74 S7        30.19R
LIBERAL        CLEAR     63  48  59 S15       30.13R
GOODLAND       PTCLDY    56  55  97 S9        30.07S
$$



USA.gov is the U.S. government's official web portal to all federal, state and local government web resources and services.